Location: Proctor
(47.8934°N, 114.3048°W)
Time: 01:44:17
(UTC+00:00)

AO-73 - Pass Details

Date: 07 July 2022
Orbit: 579 x 657 km, 97.6° (Epoch: 17 August)

Event Time Altitude Azimuth Distance (km) Brightness Sun altitude
Rises 10:30:22 0° 28° (NNE) 2,983 ? -10.1°
Reaches altitude 10° 10:33:22 10° 50° (NE) 2,074 ? -9.8°
Maximum altitude 10:36:15 17° 89° (E) 1,681 ? -9.5°
Drops below altitude 10° 10:39:07 10° 129° (SE) 2,070 ? -9.2°
Sets 10:42:05 0° 150° (SSE) 2,974 ? -8.8°
